When you browse on this site, cookies collect data to enhance your experience and personalize the content and advertising you see.
Visit our Privacy Policy to learn more. By continuing to use the site, you agree to this use of cookies and data.
  • In Österreich
  • Länderverzeichnis
  • Für 7 Tage
  • Wassertemperatur
  • Wetterkarte
  • News
  • Widgets
  • user-avatar
    Anmelden

    Stündliche Wetter Ladyshin

    Heute, 20 August, Dienstag

    Zeit Temperatur Niederschläge Wind Luftdruck Luftfeuchtigkeit
    00:00 +20°C° 0 mm 2 m/S 747 mmHg 46%
    01:00 +19°C° 0 mm 2 m/S 747 mmHg 47%
    02:00 +19°C° 0 mm 2 m/S 747 mmHg 48%
    03:00 +19°C° 0 mm 2 m/S 747 mmHg 50%
    04:00 +18°C° 0 mm 2 m/S 747 mmHg 51%
    05:00 +19°C° 0 mm 1 m/S 747 mmHg 52%
    06:00 +21°C° 0 mm 1 m/S 747 mmHg 48%
    07:00 +23°C° 0 mm 1 m/S 748 mmHg 44%
    08:00 +26°C° 0 mm 1 m/S 748 mmHg 40%
    09:00 +28°C° 0 mm 1 m/S 748 mmHg 36%
    10:00 +29°C° 0 mm 1 m/S 748 mmHg 33%
    11:00 +31°C° 0 mm 2 m/S 748 mmHg 29%
    12:00 +32°C° 0 mm 2 m/S 748 mmHg 28%
    13:00 +32°C° 0 mm 2 m/S 748 mmHg 27%
    14:00 +34°C° 0 mm 2 m/S 748 mmHg 25%
    15:00 +34°C° 0 mm 2 m/S 748 mmHg 26%
    16:00 +32°C° 0 mm 2 m/S 748 mmHg 26%
    17:00 +33°C° 0 mm 3 m/S 748 mmHg 27%
    18:00 +30°C° 0 mm 2 m/S 748 mmHg 32%
    19:00 +27°C° 0 mm 2 m/S 748 mmHg 36%
    20:00 +25°C° 0 mm 2 m/S 748 mmHg 41%
    21:00 +24°C° 0 mm 2 m/S 748 mmHg 43%
    22:00 +23°C° 0 mm 2 m/S 748 mmHg 46%
    23:00 +21°C° 0 mm 2 m/S 748 mmHg 48%

    Morgen, 21 August, Mittwoch

    Zeit Temperatur Niederschläge Wind Luftdruck Luftfeuchtigkeit
    00:00 +21°C° 0 mm 2 m/S 748 mmHg 50%
    01:00 +21°C° 0 mm 1 m/S 748 mmHg 53%
    02:00 +21°C° 0 mm 1 m/S 748 mmHg 55%
    03:00 +20°C° 0 mm 1 m/S 748 mmHg 56%
    04:00 +20°C° 0 mm 1 m/S 748 mmHg 57%
    05:00 +20°C° 0 mm 1 m/S 747 mmHg 59%
    06:00 +22°C° 0 mm 1 m/S 748 mmHg 55%
    07:00 +24°C° 0 mm 2 m/S 748 mmHg 51%
    08:00 +26°C° 0 mm 2 m/S 748 mmHg 47%
    09:00 +28°C° 0 mm 2 m/S 748 mmHg 42%
    10:00 +29°C° 0 mm 2 m/S 748 mmHg 38%
    11:00 +31°C° 0 mm 2 m/S 748 mmHg 33%
    12:00 +32°C° 0 mm 2 m/S 748 mmHg 31%
    13:00 +32°C° 0 mm 2 m/S 747 mmHg 29%
    14:00 +34°C° 0 mm 2 m/S 747 mmHg 27%
    15:00 +34°C° 0 mm 3 m/S 747 mmHg 28%
    16:00 +33°C° 0 mm 3 m/S 746 mmHg 28%
    17:00 +33°C° 0 mm 3 m/S 746 mmHg 29%
    18:00 +30°C° 0 mm 3 m/S 746 mmHg 34%
    19:00 +27°C° 0 mm 2 m/S 746 mmHg 40%
    20:00 +25°C° 0 mm 2 m/S 746 mmHg 45%
    21:00 +24°C° 0 mm 2 m/S 746 mmHg 47%
    22:00 +23°C° 0 mm 2 m/S 747 mmHg 50%
    23:00 +21°C° 0 mm 2 m/S 747 mmHg 52%

    übermorgen, 22 August, Donnerstag

    Zeit Temperatur Niederschläge Wind Luftdruck Luftfeuchtigkeit
    00:00 +22°C° 0 mm 1 m/S 747 mmHg 52%
    01:00 +22°C° 0 mm 1 m/S 747 mmHg 52%
    02:00 +22°C° 0 mm 1 m/S 747 mmHg 52%
    03:00 +20°C° 0 mm 2 m/S 747 mmHg 56%
    04:00 +19°C° 0 mm 2 m/S 747 mmHg 59%
    05:00 +19°C° 0 mm 3 m/S 747 mmHg 63%
    06:00 +20°C° 0 mm 3 m/S 747 mmHg 66%
    07:00 +22°C° 0 mm 4 m/S 747 mmHg 69%
    08:00 +23°C° 0 mm 5 m/S 748 mmHg 72%
    09:00 +25°C° 0 mm 5 m/S 748 mmHg 68%
    10:00 +26°C° 0 mm 5 m/S 748 mmHg 64%
    11:00 +28°C° 0 mm 6 m/S 748 mmHg 60%
    12:00 +28°C° 0 mm 6 m/S 748 mmHg 58%
    13:00 +28°C° 0 mm 6 m/S 748 mmHg 57%
    14:00 +29°C° 0 mm 6 m/S 748 mmHg 56%
    15:00 +28°C° 0 mm 6 m/S 748 mmHg 59%
    16:00 +27°C° 0 mm 6 m/S 748 mmHg 61%
    17:00 +26°C° 0 mm 6 m/S 748 mmHg 64%
    18:00 +24°C° 0 mm 6 m/S 748 mmHg 70%
    19:00 +22°C° 0 mm 5 m/S 748 mmHg 76%
    20:00 +20°C° 0 mm 5 m/S 749 mmHg 82%
    21:00 +20°C° 0 mm 5 m/S 749 mmHg 84%
    22:00 +19°C° 0 mm 4 m/S 749 mmHg 86%
    23:00 +18°C° 0 mm 4 m/S 749 mmHg 89%

    23 August, Freitag

    Zeit Temperatur Niederschläge Wind Luftdruck Luftfeuchtigkeit
    00:00 +18°C° 0 mm 4 m/S 749 mmHg 90%
    01:00 +18°C° 0 mm 4 m/S 749 mmHg 92%
    02:00 +17°C° 0 mm 3 m/S 749 mmHg 94%
    03:00 +17°C° 0 mm 3 m/S 749 mmHg 95%
    04:00 +17°C° 0 mm 3 m/S 749 mmHg 96%
    05:00 +17°C° 0 mm 4 m/S 749 mmHg 96%
    06:00 +18°C° 0 mm 4 m/S 749 mmHg 91%
    07:00 +19°C° 0 mm 4 m/S 749 mmHg 85%
    08:00 +20°C° 0 mm 4 m/S 749 mmHg 79%
    09:00 +22°C° 0 mm 4 m/S 749 mmHg 73%
    10:00 +25°C° 0 mm 4 m/S 749 mmHg 66%
    11:00 +27°C° 0 mm 4 m/S 749 mmHg 60%
    12:00 +27°C° 0 mm 4 m/S 749 mmHg 57%
    13:00 +28°C° 0 mm 4 m/S 749 mmHg 55%
    14:00 +29°C° 0 mm 4 m/S 749 mmHg 53%
    15:00 +28°C° 0 mm 4 m/S 749 mmHg 54%
    16:00 +28°C° 0 mm 5 m/S 749 mmHg 56%
    17:00 +27°C° 0 mm 5 m/S 749 mmHg 57%
    18:00 +26°C° 0 mm 4 m/S 749 mmHg 64%
    19:00 +23°C° 0 mm 4 m/S 749 mmHg 70%
    20:00 +21°C° 0 mm 3 m/S 749 mmHg 77%
    21:00 +20°C° 0 mm 3 m/S 749 mmHg 80%
    22:00 +19°C° 0 mm 3 m/S 749 mmHg 84%
    23:00 +19°C° 0 mm 3 m/S 749 mmHg 87%

    24 August, Samstag

    Zeit Temperatur Niederschläge Wind Luftdruck Luftfeuchtigkeit
    00:00 +18°C° 0 mm 3 m/S 749 mmHg 90%
    01:00 +17°C° 0 mm 3 m/S 749 mmHg 92%
    02:00 +17°C° 0 mm 3 m/S 749 mmHg 95%
    03:00 +16°C° 0 mm 3 m/S 749 mmHg 95%
    04:00 +16°C° 0 mm 3 m/S 749 mmHg 95%
    05:00 +16°C° 0 mm 3 m/S 750 mmHg 96%
    06:00 +17°C° 0 mm 4 m/S 750 mmHg 88%
    07:00 +19°C° 0 mm 4 m/S 750 mmHg 80%
    08:00 +20°C° 0 mm 5 m/S 750 mmHg 72%
    09:00 +22°C° 0 mm 4 m/S 750 mmHg 66%
    10:00 +25°C° 0 mm 4 m/S 750 mmHg 61%
    11:00 +26°C° 0 mm 4 m/S 750 mmHg 55%
    12:00 +27°C° 0 mm 4 m/S 749 mmHg 52%
    13:00 +28°C° 0 mm 3 m/S 749 mmHg 49%
    14:00 +29°C° 0 mm 3 m/S 749 mmHg 46%
    15:00 +29°C° 0 mm 3 m/S 749 mmHg 46%
    16:00 +29°C° 0 mm 3 m/S 748 mmHg 46%
    17:00 +29°C° 0 mm 4 m/S 748 mmHg 46%
    18:00 +26°C° 0 mm 4 m/S 748 mmHg 54%
    19:00 +23°C° 0 mm 4 m/S 748 mmHg 63%
    20:00 +21°C° 0 mm 3 m/S 748 mmHg 71%
    21:00 +20°C° 0 mm 3 m/S 748 mmHg 74%
    22:00 +20°C° 0 mm 3 m/S 748 mmHg 77%
    23:00 +19°C° 0 mm 3 m/S 748 mmHg 79%

    25 August, Sonntag

    Zeit Temperatur Niederschläge Wind Luftdruck Luftfeuchtigkeit
    00:00 +19°C° 0 mm 3 m/S 748 mmHg 80%
    01:00 +18°C° 0 mm 3 m/S 748 mmHg 81%
    02:00 +18°C° 0 mm 3 m/S 748 mmHg 82%
    03:00 +17°C° 0 mm 3 m/S 748 mmHg 85%
    04:00 +17°C° 0 mm 2 m/S 748 mmHg 87%
    05:00 +16°C° 0 mm 2 m/S 748 mmHg 89%
    06:00 +18°C° 0 mm 2 m/S 748 mmHg 80%
    07:00 +21°C° 0 mm 3 m/S 748 mmHg 71%
    08:00 +24°C° 0 mm 3 m/S 748 mmHg 62%
    09:00 +25°C° 0 mm 3 m/S 749 mmHg 55%
    10:00 +27°C° 0 mm 3 m/S 749 mmHg 49%
    11:00 +29°C° 0 mm 3 m/S 749 mmHg 43%
    12:00 +29°C° 0 mm 3 m/S 748 mmHg 39%
    13:00 +30°C° 0 mm 3 m/S 748 mmHg 36%
    14:00 +31°C° 0 mm 3 m/S 748 mmHg 32%
    15:00 +30°C° 0 mm 4 m/S 748 mmHg 31%
    16:00 +30°C° 0 mm 4 m/S 748 mmHg 31%
    17:00 +29°C° 0 mm 5 m/S 748 mmHg 30%
    18:00 +27°C° 0 mm 5 m/S 748 mmHg 35%
    19:00 +23°C° 0 mm 4 m/S 748 mmHg 39%
    20:00 +21°C° 0 mm 4 m/S 748 mmHg 43%
    21:00 +20°C° 0 mm 4 m/S 748 mmHg 45%
    22:00 +19°C° 0 mm 4 m/S 748 mmHg 48%
    23:00 +18°C° 0 mm 3 m/S 748 mmHg 50%
    Mehr zeigen